GW1757 Weather Reports


time (UTC)temp
C
wind
direction
speed
KPH
gust
KPH
rain 1hr
cm
rain 24hr
cm
rain mn
cm
humidity
%
barometer
mb
20260509101906 27 359 4.8 6.4 0.00 1.70 1.70 87 1006.9
20260509101359 27 354 4.8 6.4 0.00 1.70 1.70 87 1007.0
20260509100853 27 354 4.8 6.4 0.00 1.70 1.70 87 1006.9
20260509100347 27 354 4.8 6.4 0.00 1.70 1.70 87 1006.9
20260509100104 27 354 3.2 6.4 0.00 1.70 1.70 86 1007.0
20260509095334 28 14 3.2 8.0 0.00 1.70 1.70 86 1006.9
20260509094828 28 49 3.2 8.0 0.00 1.70 1.70 86 1006.8
20260509094322 28 15 3.2 8.0 0.00 1.70 1.70 87 1006.8
20260509093816 28 17 3.2 8.0 0.00 1.70 1.70 86 1006.9
20260509093311 28 359 3.2 9.7 0.00 1.70 1.70 86 1007.0
20260509092804 28 359 4.8 9.7 0.00 1.70 1.70 86 1006.9
20260509092258 28 22 3.2 8.0 0.00 1.70 1.70 86 1006.8
20260509091752 28 71 4.8 11.3 0.00 1.70 1.70 87 1006.7
20260509091246 28 17 6.4 12.9 0.00 1.70 1.70 87 1006.7
20260509091008 28 12 8.0 14.5 0.00 1.70 1.70 86 1006.6
20260509090233 28 359 8.0 14.5 0.00 1.70 1.70 86 1006.5
20260509085955 28 359 6.4 14.5 0.00 1.70 1.70 86 1006.5
20260509085223 28 343 4.8 14.5 0.00 1.70 1.70 85 1006.6
20260509084716 28 359 4.8 14.5 0.00 1.70 1.70 86 1006.5
20260509084212 28 21 6.4 14.5 0.00 1.70 1.70 85 1006.5
20260509083705 28 64 6.4 16.1 0.00 1.70 1.70 85 1006.4
20260509083159 28 50 6.4 16.1 0.00 1.70 1.70 84 1006.3
20260509082919 29 52 6.4 14.5 0.00 1.70 1.70 85 1006.3
20260509082146 29 51 6.4 14.5 0.00 1.70 1.70 85 1006.2
20260509081640 29 345 4.8 14.5 0.00 1.70 1.70 84 1006.2
20260509081135 28 359 6.4 14.5 0.00 1.70 1.70 85 1006.1
20260509080628 28 43 9.7 16.1 0.00 1.70 1.70 84 1006.1
20260509080340 28 34 9.7 16.1 0.00 1.70 1.70 84 1006.1
20260509075617 29 43 9.7 17.7 0.00 1.70 1.70 83 1006.1
20260509075329 29 20 8.0 17.7 0.00 1.70 1.70 83 1006.1
20260509074822 29 59 8.0 16.1 0.00 1.70 1.70 83 1006.1
20260509074059 29 23 9.7 17.7 0.00 1.70 1.70 82 1006.2
20260509073552 29 16 6.4 17.7 0.00 1.70 1.70 83 1006.3
20260509073046 29 84 4.8 14.5 0.00 1.70 1.70 83 1006.3
20260509072541 29 359 6.4 14.5 0.00 1.70 1.70 83 1006.3
20260509072034 29 4 8.0 17.7 0.00 1.70 1.70 83 1006.4
20260509071528 29 48 8.0 20.9 0.00 1.70 1.70 83 1006.3
20260509071252 29 359 6.4 20.9 0.00 1.70 1.70 82 1006.4
20260509070516 29 37 6.4 14.5 0.00 1.70 1.70 82 1006.5
20260509070010 29 55 6.4 14.5 0.00 1.70 1.70 83 1006.5
20260509065504 29 359 6.4 14.5 0.00 1.70 1.70 82 1006.5
20260509064959 29 8 6.4 14.5 0.00 1.70 1.70 82 1006.5
20260509064452 29 16 6.4 14.5 0.00 1.70 1.70 83 1006.6
20260509063946 29 25 8.0 16.1 0.00 1.70 1.70 83 1006.5
20260509063441 28 40 9.7 16.1 0.00 1.70 1.70 82 1006.6
20260509062934 29 66 8.0 16.1 0.00 1.70 1.70 82 1006.6
20260509062428 29 31 8.0 17.7 0.00 1.70 1.70 81 1006.6
20260509061922 29 8 8.0 17.7 0.00 1.70 1.70 82 1006.7
20260509061417 29 4 8.0 17.7 0.00 1.70 1.70 83 1006.7
20260509060911 29 23 8.0 20.9 0.00 1.70 1.70 83 1006.7
20260509060405 29 338 9.7 20.9 0.00 1.70 1.70 82 1006.8
20260509055859 29 21 11.3 19.3 0.00 1.70 1.70 82 1006.8
20260509055352 29 13 11.3 19.3 0.00 1.70 1.70 82 1006.8
20260509054847 28 341 9.7 19.3 0.00 1.70 1.70 84 1006.8
20260509054343 28 359 9.7 19.3 0.00 1.70 1.70 82 1006.9
20260509053839 28 349 8.0 19.3 0.00 1.70 1.70 82 1006.9
20260509053338 28 16 8.0 19.3 0.00 1.70 1.70 83 1007.0
20260509052838 28 67 9.7 19.3 0.00 1.70 1.70 81 1007.1
20260509052823 29 17 9.7 19.3 0.00 1.70 1.70 82 1007.1
20260509051839 29 25 11.3 19.3 0.00 1.70 1.70 82 1007.3
20260509051339 29 14 11.3 27.4 0.00 1.70 1.70 82 1007.4
20260509050839 28 337 11.3 27.4 0.00 1.70 1.70 83 1007.4
20260509050338 29 359 9.7 20.9 0.00 1.70 1.70 84 1007.5
20260509045838 28 343 11.3 20.9 0.00 1.70 1.70 84 1007.6
20260509045338 28 8 12.9 20.9 0.00 1.70 1.70 84 1007.7
20260509044838 29 337 11.3 20.9 0.00 1.70 1.70 85 1007.6
20260509044338 29 35 11.3 19.3 0.00 1.70 1.70 84 1007.7
20260509044108 29 70 12.9 24.1 0.00 1.70 1.70 85 1007.8
20260509043338 28 345 12.9 24.1 0.00 1.70 1.70 85 1007.9
20260509042838 29 25 11.3 20.9 0.00 1.70 1.70 84 1007.9
20260509042559 29 48 9.7 20.9 0.00 1.70 1.70 85 1008.1
20260509041834 28 33 12.9 22.5 0.00 1.70 1.70 86 1008.2
20260509041335 28 15 12.9 24.1 0.00 1.70 1.70 85 1008.3
20260509040835 28 22 11.3 24.1 0.00 1.70 1.70 83 1008.2
20260509040334 29 4 12.9 22.5 0.00 1.70 1.70 85 1008.3
20260509040057 29 25 12.9 22.5 0.00 1.70 1.70 84 1008.3
20260509035336 28 38 12.9 25.7 0.00 1.70 1.70 84 1008.4
20260509034834 28 53 14.5 25.7 0.00 1.70 1.70 85 1008.5
20260509034334 28 25 14.5 24.1 0.00 1.70 1.70 86 1008.5
20260509033831 28 33 14.5 24.1 0.00 1.70 1.70 86 1008.7
20260509033330 28 10 12.9 22.5 0.00 1.70 1.70 87 1008.8
20260509032830 28 32 12.9 27.4 0.00 1.70 1.70 88 1008.8
20260509032551 28 93 14.5 27.4 0.00 1.70 1.70 87 1008.9
20260509031831 28 37 14.5 27.4 0.00 1.70 1.70 88 1008.9
20260509031330 28 71 16.1 27.4 0.00 1.70 1.70 88 1008.9
20260509030831 28 9 12.9 24.1 0.00 1.70 1.70 87 1008.9
20260509030330 28 359 12.9 25.7 0.00 1.70 1.70 87 1008.8
20260509025836 28 344 14.5 25.7 0.00 1.70 1.70 88 1009.0
20260509025328 28 18 11.3 24.1 0.00 1.70 1.70 87 1009.1
20260509024823 28 354 12.9 24.1 0.00 1.70 1.70 87 1009.2
20260509024316 28 359 12.9 24.1 0.00 1.70 1.70 86 1009.2
20260509023814 29 43 12.9 22.5 0.00 1.70 1.70 87 1009.2
20260509023305 29 37 11.3 24.1 0.00 1.70 1.70 86 1009.2
20260509022758 29 31 9.7 24.1 0.00 1.70 1.70 86 1009.1
20260509022252 29 94 11.3 20.9 0.00 1.70 1.70 86 1009.2
20260509021749 28 27 9.7 20.9 0.00 1.70 1.70 86 1009.4
20260509021240 28 4 11.3 25.7 0.00 1.70 1.70 86 1009.5
20260509020734 28 34 11.3 25.7 0.00 1.70 1.70 86 1009.5
20260509020229 28 359 8.0 20.9 0.00 1.70 1.70 85 1009.5
20260509015216 28 348 9.7 20.9 0.00 1.70 1.70 86 1009.4
20260509014711 28 41 9.7 17.7 0.00 1.70 1.70 87 1009.5
20260509014426 28 359 9.7 19.3 0.00 1.70 1.70 87 1009.4
20260509013658 28 37 11.3 24.1 0.00 1.70 1.70 87 1009.4
20260509013154 28 52 11.3 24.1 0.00 1.70 1.70 87 1009.4
20260509012647 28 68 11.3 22.5 0.00 1.70 1.70 88 1009.4
20260509012141 28 8 11.3 22.5 0.00 1.70 1.70 88 1009.4
20260509011635 28 27 9.7 20.9 0.00 1.70 1.70 89 1009.3
20260509011129 28 359 8.0 19.3 0.00 1.70 1.70 89 1009.5
20260509010622 28 359 8.0 19.3 0.00 1.70 1.70 89 1009.5
20260509010119 28 4 6.4 19.3 0.00 1.70 1.70 89 1009.5
20260509005611 28 66 3.2 14.5 0.00 1.70 1.70 90 1009.6
20260509005105 28 359 0.0 11.3 0.00 1.70 1.70 90 1009.6
20260509004558 27 31 0.0 0.0 0.00 1.70 1.70 90 1009.5
20260509004059 27 36 0.0 0.0 0.00 1.70 1.70 91 1009.5
20260509003547 27 348 0.0 0.0 0.00 1.70 1.70 90 1009.4
20260509003041 27 348 0.0 0.0 0.00 1.70 1.70 90 1009.5
20260509002536 28 359 0.0 1.6 0.00 1.70 1.70 91 1009.5
20260509002259 28 233 0.0 0.0 0.00 1.70 1.70 92 1009.4
20260509001523 27 231 0.0 0.0 0.00 1.70 1.70 92 1009.4
20260509001512 27 232 0.0 0.0 0.00 1.70 1.70 92 1009.5
20260509000510 27 136 0.0 0.0 0.00 1.70 1.70 92 1009.5
20260509000450 27 134 0.0 1.6 0.00 1.70 1.70 92 1009.3
20260508235500 27 147 0.0 1.6 0.00 1.70 1.70 92 1009.3
20260508234953 27 162 0.0 1.6 0.00 1.70 1.70 93 1009.3
20260508234448 27 162 0.0 1.6 0.00 1.70 1.70 93 1009.3
20260508233941 26 165 0.0 0.0 0.00 1.70 1.70 93 1009.2
20260508233652 26 201 0.0 0.0 0.00 1.70 1.70 93 1009.0
20260508232928 26 162 0.0 0.0 0.00 1.70 1.70 93 1009.1
20260508232423 26 150 0.0 0.0 0.00 1.70 1.70 93 1009.1
20260508231916 26 151 0.0 0.0 0.00 1.70 1.70 93 1009.0
20260508231410 26 149 0.0 0.0 0.00 1.70 1.70 93 1009.0
20260508230906 26 147 0.0 0.0 0.00 1.70 1.70 93 1008.8
20260508230359 26 147 0.0 0.0 0.00 1.70 1.70 93 1008.8
20260508225853 26 147 0.0 0.0 0.00 1.70 1.70 93 1008.6
20260508225352 26 149 0.0 0.0 0.00 1.70 1.70 93 1008.6
20260508224849 26 148 0.0 3.2 0.03 1.70 1.70 93 1008.7
20260508224350 26 137 0.0 3.2 0.03 1.70 1.70 93 1008.6
20260508223849 26 150 0.0 0.0 0.03 1.70 1.70 93 1008.5
20260508223606 26 149 0.0 0.0 0.13 1.70 1.70 93 1008.5
20260508223118 25 130 0.0 0.0 0.13 1.70 1.70 94 1008.4
20260508222347 25 133 0.0 0.0 0.13 1.70 1.70 94 1008.2
20260508221845 25 200 0.0 0.0 0.13 1.70 1.70 94 1008.2
20260508221346 25 210 0.0 0.0 0.13 1.70 1.70 94 1008.2
20260508220845 25 201 0.0 4.8 0.13 1.70 1.70 93 1008.2
20260508220613 25 226 0.0 4.8 0.13 1.70 1.70 94 1008.2
20260508215845 25 201 0.0 4.8 0.13 1.70 1.70 94 1008.0
20260508215347 25 359 0.0 0.0 0.13 1.70 1.70 94 1007.9
20260508214845 25 195 0.0 0.0 0.10 1.68 1.68 94 1007.9
20260508214346 25 359 0.0 8.0 0.10 1.68 1.68 94 1008.0
20260508213845 25 121 0.0 8.0 0.10 1.68 1.68 94 1007.9
20260508213345 25 225 0.0 0.0 0.00 1.57 1.57 94 1008.1
20260508213105 25 359 0.0 0.0 0.00 1.57 1.57 94 1008.0
20260508212334 25 359 0.0 0.0 0.00 1.57 1.57 94 1007.9
20260508211827 25 359 0.0 0.0 0.00 1.57 1.57 94 1007.7
20260508211330 25 213 0.0 3.2 0.00 1.57 1.57 94 1007.7
20260508211049 25 212 0.0 3.2 0.00 1.57 1.57 94 1007.7
20260508210325 25 220 0.0 3.2 0.00 1.57 1.57 94 1007.6
20260508205825 25 220 0.0 0.0 0.00 1.57 1.57 94 1007.6
20260508205325 25 223 0.0 0.0 0.00 1.57 1.57 94 1007.5
20260508204825 25 224 0.0 0.0 0.00 1.57 1.57 94 1007.4
20260508204327 25 359 0.0 0.0 0.00 1.57 1.57 94 1007.4
20260508203827 25 195 0.0 0.0 0.00 1.57 1.57 94 1007.3
20260508203325 24 199 0.0 0.0 0.00 1.57 1.57 94 1007.3
20260508202825 25 243 0.0 0.0 0.00 1.57 1.57 94 1007.3
20260508202325 25 246 0.0 0.0 0.00 1.57 1.57 94 1007.3
20260508201825 24 231 0.0 1.6 0.00 1.57 1.57 94 1007.2
20260508201325 25 198 0.0 4.8 0.00 1.57 1.57 95 1007.3
20260508200825 24 212 1.6 8.0 0.00 1.57 1.57 95 1007.2
20260508200324 24 359 1.6 8.0 0.00 1.57 1.57 94 1007.2
20260508195821 24 359 1.6 8.0 0.00 1.57 1.57 94 1007.2
20260508195321 24 222 1.6 8.0 0.00 1.57 1.57 94 1007.2
20260508194821 24 226 1.6 11.3 0.03 1.57 1.57 94 1007.2
20260508194320 24 193 1.6 11.3 0.03 1.57 1.57 94 1007.2
20260508194048 24 359 1.6 9.7 0.05 1.57 1.57 94 1007.1
20260508193321 24 215 3.2 11.3 0.10 1.57 1.57 94 1007.1
20260508193305 24 201 3.2 11.3 0.13 1.57 1.57 94 1007.1
20260508192321 24 255 4.8 11.3 0.20 1.57 1.57 94 1007.1
20260508191819 24 213 3.2 11.3 0.36 1.57 1.57 94 1007.0
20260508191539 24 359 1.6 11.3 0.36 1.57 1.57 94 1007.1
20260508191300 24 227 1.6 9.7 0.38 1.57 1.57 94 1007.0
20260508190319 24 224 0.0 6.4 0.56 1.57 1.57 94 1007.2
20260508185819 24 233 1.6 6.4 0.58 1.57 1.57 94 1007.1
20260508185319 24 210 0.0 6.4 0.58 1.57 1.57 94 1007.1
20260508184819 24 227 0.0 4.8 0.56 1.55 1.55 94 1007.1
20260508184319 24 197 1.6 6.4 0.61 1.55 1.55 94 1007.1
20260508183818 24 246 3.2 12.9 0.58 1.55 1.55 94 1007.1
20260508183312 24 221 3.2 14.5 0.53 1.47 1.50 94 1007.2
20260508182806 24 243 1.6 14.5 0.61 1.45 1.45 94 1007.2
20260508182300 25 218 0.0 6.4 0.58 1.37 1.37 94 1007.2
20260508181754 25 244 0.0 3.2 0.43 1.22 1.22 94 1007.4
20260508181249 25 359 1.6 9.7 0.43 1.22 1.22 94 1007.4
20260508181011 25 227 1.6 9.7 0.38 1.17 1.19 93 1007.5
20260508180236 25 179 0.0 0.0 0.23 0.99 0.99 93 1007.7
20260508180042 25 177 0.0 0.0 0.25 0.99 0.99 94 1007.6
20260508174942 25 162 0.0 3.2 0.51 1.17 0.99 93 1007.8
20260508174212 25 359 1.6 6.4 0.61 1.35 0.97 93 1007.8
20260508174156 25 152 1.6 6.4 0.61 1.93 0.97 94 1007.9
20260508173200 25 139 1.6 8.0 0.64 2.44 0.94 93 1007.9
20260508172654 25 177 1.6 8.0 0.81 2.69 0.84 93 1007.9
20260508172147 25 63 1.6 8.0 0.79 3.15 0.79 93 1008.0
20260508171642 25 47 1.6 9.7 0.79 3.15 0.79 93 1007.9
20260508171136 25 212 4.8 17.7 0.79 3.20 0.79 92 1007.8
20260508170630 25 105 6.4 17.7 0.79 3.45 0.79 93 1007.9
20260508170124 25 51 6.4 17.7 0.79 4.01 0.79 94 1007.9
20260508165618 24 346 4.8 19.3 0.71 4.19 0.74 93 1007.7
20260508165330 24 169 9.7 22.5 0.51 3.99 0.51 93 1008.1
20260508164606 25 133 8.0 22.5 0.43 3.91 0.43 92 1008.0
20260508164101 25 45 6.4 19.3 0.36 3.96 0.36 92 1007.9
20260508163555 25 129 12.9 24.1 0.33 4.19 0.33 92 1007.9
20260508163312 25 120 11.3 24.1 0.23 4.19 0.23 91 1008.1
20260508162542 26 103 4.8 20.9 0.00 3.99 0.00 91 1008.2
20260508162306 26 124 3.2 8.0 0.00 3.99 0.00 91 1008.1
20260508161748 26 151 1.6 6.4 0.00 3.99 0.00 91 1008.1
20260508161027 26 122 3.2 12.9 0.00 3.99 0.00 91 1008.3
20260508160519 26 177 4.8 12.9 0.00 3.99 0.00 90 1008.3
20260508160240 27 162 3.2 11.3 0.00 3.99 0.00 90 1008.4
20260508155507 27 154 0.0 4.8 0.00 3.99 3.99 89 1008.5
20260508155002 27 65 0.0 3.2 0.00 3.99 3.99 89 1008.5
20260508154456 27 66 1.6 4.8 0.00 3.99 3.99 89 1008.5
20260508153949 27 66 3.2 11.3 0.00 3.99 3.99 89 1008.6
20260508153443 27 45 4.8 11.3 0.00 3.99 3.99 89 1008.7
20260508152937 27 110 3.2 6.4 0.00 3.99 3.99 89 1008.8
20260508152433 27 90 4.8 12.9 0.00 3.99 3.99 89 1008.8
20260508151926 27 117 6.4 12.9 0.00 3.99 3.99 89 1008.9
20260508151419 27 107 4.8 11.3 0.00 3.99 3.99 89 1009.0
20260508150913 27 110 3.2 11.3 0.00 3.99 3.99 89 1009.0
20260508150407 27 133 4.8 11.3 0.00 3.99 3.99 89 1009.1
20260508150131 27 129 3.2 9.7 0.00 3.99 3.99 89 1009.2
20260508145355 27 103 3.2 4.8 0.00 3.99 3.99 89 1009.1
20260508144849 27 102 3.2 6.4 0.00 3.99 3.99 89 1009.2
20260508144839 27 106 3.2 6.4 0.00 3.99 3.99 89 1009.1
20260508143837 27 102 4.8 9.7 0.00 3.99 3.99 88 1009.1
20260508143335 27 89 4.8 9.7 0.00 3.99 3.99 88 1009.2
20260508143049 27 66 4.8 9.7 0.00 3.99 3.99 88 1009.2
20260508142321 27 69 4.8 11.3 0.00 3.99 3.99 88 1009.2
20260508141822 27 117 4.8 11.3 0.00 3.99 3.99 88 1009.2
20260508141321 27 89 3.2 9.7 0.00 3.99 3.99 88 1009.1
20260508140825 27 77 1.6 8.0 0.00 3.99 3.99 88 1009.1
20260508140549 27 88 1.6 4.8 0.00 3.99 3.99 89 1009.1
20260508135823 27 256 1.6 4.8 0.00 3.99 3.99 89 1009.0
20260508135321 27 259 1.6 4.8 0.00 3.99 3.99 89 1009.0
20260508134822 27 258 1.6 6.4 0.00 3.99 3.99 89 1008.9
20260508134322 27 259 1.6 6.4 0.00 3.99 3.99 89 1009.0
20260508133819 27 258 0.0 3.2 0.00 3.99 3.99 89 1008.9
20260508133540 27 257 0.0 4.8 0.00 3.99 3.99 89 1008.9
20260508132819 27 359 1.6 4.8 0.00 3.99 3.99 89 1008.9
20260508132317 27 195 1.6 6.4 0.00 3.99 3.99 89 1008.9
20260508131818 27 204 3.2 6.4 0.00 3.99 3.99 89 1008.9
20260508131317 27 201 1.6 8.0 0.00 3.99 3.99 90 1008.9
20260508130818 27 206 1.6 8.0 0.00 3.99 3.99 90 1008.7
20260508130322 26 199 1.6 6.4 0.00 3.99 3.99 90 1008.7
20260508125824 26 217 1.6 4.8 0.00 3.99 3.99 90 1008.6
20260508125316 26 224 1.6 6.4 0.00 3.99 3.99 90 1008.6
20260508124806 27 224 1.6 6.4 0.00 3.99 3.99 90 1008.6
20260508124259 27 201 1.6 4.8 0.00 3.99 3.99 90 1008.5
20260508123759 27 213 1.6 4.8 0.00 3.99 3.99 90 1008.5
20260508123257 27 217 1.6 4.8 0.00 3.99 3.99 90 1008.5
20260508122802 27 230 1.6 4.8 0.00 3.99 3.99 90 1008.6
20260508122519 27 231 1.6 4.8 0.00 3.99 3.99 90 1008.5
20260508121756 27 185 1.6 4.8 0.00 3.99 3.99 90 1008.4
20260508121257 27 240 1.6 4.8 0.00 3.99 3.99 90 1008.4
20260508120757 27 224 1.6 6.4 0.00 3.99 3.99 89 1008.4
20260508120301 27 359 1.6 6.4 0.00 3.99 3.99 89 1008.4
20260508115755 27 223 1.6 4.8 0.00 3.99 3.99 89 1008.4
20260508115520 27 212 1.6 4.8 0.00 3.99 3.99 88 1008.3
20260508114753 28 214 1.6 4.8 0.00 3.99 3.99 88 1008.2
20260508114253 28 218 1.6 4.8 0.00 3.99 3.99 88 1008.1
20260508113751 28 99 3.2 6.4 0.00 3.99 3.99 87 1008.1
20260508113250 28 98 4.8 6.4 0.00 3.99 3.99 87 1008.0
20260508112752 28 81 3.2 6.4 0.00 3.99 3.99 87 1008.1
20260508112254 28 64 4.8 8.0 0.00 3.99 3.99 87 1007.9
20260508111750 28 79 4.8 8.0 0.00 3.99 3.99 87 1007.7
20260508111251 28 67 4.8 8.0 0.00 3.99 3.99 87 1007.7
20260508110751 27 53 4.8 6.4 0.00 3.99 3.99 88 1007.7
20260508110248 27 77 3.2 6.4 0.00 3.99 3.99 89 1007.6
20260508105749 27 37 3.2 6.4 0.00 3.99 3.99 89 1007.6
20260508105249 27 8 3.2 6.4 0.00 3.99 3.99 89 1007.6
20260508104750 27 354 3.2 6.4 0.00 3.99 3.99 89 1007.5
20260508104249 27 52 4.8 8.0 0.00 3.99 3.99 89 1007.4
20260508103749 27 354 3.2 8.0 0.00 3.99 3.99 89 1007.3
20260508103249 27 359 3.2 6.4 0.00 3.99 3.99 89 1007.2
20260508102749 27 359 3.2 6.4 0.00 3.99 3.99 89 1007.2